Location: NCO
(38.4404°N, 77.1340°W)
Time: 19:43:41
(UTC-05:00)

ISS - Visible Passes

Search period start: 17 February 2019 00:00
Search period end: 27 February 2019 00:00
Orbit: 403 x 411 km, 51.6° (Epoch: 18 February)

Date Brightness Start Highest point End Pass type
(mag) Time Alt. Az. Time Alt. Az. Time Alt. Az.
20 Feb -0.6 06:06:35 10° SSE 06:07:59 12° SE 06:09:23 10° ESE visible
22 Feb -2.0 05:58:19 10° SSW 06:01:16 32° SE 06:04:13 10° ENE visible
23 Feb -1.0 05:07:47 10° S 05:09:56 16° SE 05:12:05 10° E visible
24 Feb -3.9 05:51:42 12° SW 05:54:40 89° NW 05:57:57 10° NE visible
25 Feb -3.0 05:02:53 42° SSE 05:03:12 44° SE 05:06:20 10° ENE visible
26 Feb -0.5 04:13:51 13° E 04:13:51 13° E 04:14:24 10° E visible
26 Feb -3.0 05:46:35 21° W 05:48:11 35° NNW 05:51:14 10° NE visible
